User: anonymous
Location: Unspecified
(0.0000°N, 0.0000°E)
Time: 06:19:27
(UTC+02:00)
Language:

Cosmos 1898 Rocket - Orbit

View from above orbital plane
View from above orbital plane
View from above satellite
View from above satellite

Ground track
Ground track

The orbit data is extracted from the following two-line orbital elements,

1 18586U 87098B   14264.80731650  .00000175  00000-0  68503-4 0  1291
2 18586 074.0084 335.2619 0022267 269.1624 230.5486 14.36458080403847
Epoch (UTC): 21 September 2014 19:22:32
Eccentricity: 0.0022267
inclination: 74.0084°
perigee height: 754 km
apogee height: 786 km
right ascension of ascending node: 335.2619°
argument of perigee: 269.1624°
revolutions per day: 14.36458080
mean anomaly at epoch: 230.5486°
orbit number at epoch: 40384

The dashed part of the orbit path shows where the satellite is in the earth's shadow,  

DLR